Starlink 5981

operational
NORAD ID: 56325 Int'l Des: 2023-058 Owner: SPXS Country: US Constellation: starlink
LEOCIRCULARRETROGRADESSO

About Starlink 5981

Description loading...

Live Position

Loading 3D Globe...

Upcoming Passes

Altitude History

Altitude vs Time

uPlot chart will show altitude changes over time

Two-Line Element Set

1 56325U 23058J 25303.28836865 .00000474 00000-0 41456-4 0 9997
2 56325 97.6048 302.5157 0001288 91.1164 269.0208 15.01259207138563
Epoch: Oct 30, 2025 • Age: 18 hours

Current Status

Altitude 574.4 km
Velocity 7.58 km/s
Sub-Earth Point 70.82°N, 91.17°E
Launch Date Apr 27, 2023
Age 2.5 years
Type internet

Technical Details

Classification Payload
Mass 300.00 kg
Dry Mass 260.00 kg
Total Mass 300.00 kg
Length 0.20 m
Diameter 2.80 m
Span 9.00 m
Shape Box + pan
Manufacturer SPXS
Bus Type Starlink
Phase Status In Orbit
Owner/State SPXS/US

Large Constellations

Loading constellations...